Location: Karcze
(52.0945°N, 22.4786°E)
Time: 03:44:29
(UTC+00:00)

Transit 2A Rocket - Pass Details

Date: 06 August 2021
Orbit: 586 x 916 km, 66.7° (Epoch: 21 September)

Event Time Altitude Azimuth Distance (km) Brightness Sun altitude
Rises 17:13:12 0° 317° (NW) 3,152 9.4 7.4°
Reaches altitude 10° 17:15:57 10° 331° (NNW) 2,289 8.3 7.0°
Maximum altitude 17:20:10 24° 25° (NNE) 1,625 6.7 6.4°
Drops below altitude 10° 17:24:40 10° 77° (ENE) 2,459 7.1 5.7°
Sets 17:27:44 0° 92° (E) 3,444 7.8 5.3°
